Terminal Aerodrome Forecast
Issued by NWS

Home | Current Version | Previous Version | Graphics & Text | Print | Product List | Glossary On
Versions: 1 2 3 4 5 6 7 8 9 10 11 12 13 14 15 16 17 18 19 20 21 22 23 24 25 26 27 28 29 30 31 32 33 34 35 36
000
FTUS43 KGRB 220500
TAFRHI
TAF
KRHI 220525Z 2206/2306 16005KT P6SM SCT025 BKN035 WS015/21030KT
     FM220800 18005KT P6SM SCT018 BKN030 WS015/22035KT
      TEMPO 2212/2216 3SM TSRA SCT006 BKN018CB
     FM221600 22012G20KT P6SM SCT020 BKN035
     FM222000 27014G25KT P6SM SCT035 BKN090
     FM222300 33010KT P6SM SKC=

USA.gov is the U.S. government's official web portal to all federal, state and local government web resources and services.